Weather History for Lakehurst NAS, NJ

Change the Weather History Date:

Thursday, December 20, 2012

  Actual Average Record
Temperature  
Mean Temperature 36 °F -  
Max Temperature 51 °F 42 °F 55 °F (1999)
Min Temperature 24 °F 32 °F 10 °F (2004)
Degree Days  
Heating Degree Days 29    
Moisture  
Dew Point 32 °F    
Average Humidity 77    
Maximum Humidity 96    
Minimum Humidity 58    
Precipitation  
Precipitation 0.00 in - - ()
Sea Level Pressure  
Sea Level Pressure 30.07 in    
Wind  
Wind Speed 5 mph (East)    
Max Wind Speed 16 mph    
Max Gust Speed -    
Averages and records for this station are not official NWS values.
T = Trace of Precipitation, MM = Missing Value Source: NWS Daily Summary

Daily Weather History Graph

Daily Weather History Graph

Search for Another Location

Airport:

Trip Planner

Search our weather history database for the weather conditions in past years. The results will help you decide how hot, cold, wet, or windy it might be!

Date:

Astronomy

Dec. 20, 2012 Rise Set
Actual Time 7:15 AM EST 4:35 PM EST
Civil Twilight 6:44 AM EST 5:05 PM EST
Nautical Twilight 6:10 AM EST 5:39 PM EST
Astronomical Twilight 5:37 AM EST 6:12 PM EST
Moon 11:51 AM EST (12/20) No Moon Set
Length of Visible Light 10h 20m
Length of Day
9h 19m
First Quarter, 55% of the Moon is Illuminated
Dec 20
First Quarter
Dec 28
Full
Jan 4
Last Quarter
Jan 11
New
Jan 18
First Quarter

Hourly Weather History & Observations

Time (EST) Temp. Windchill Dew Point Humidity Pressure Visibility Wind Dir Wind Speed Gust Speed Precip Events Conditions
12:00 AM 35.1 °F 31.0 °F 27.0 °F 72% 30.13 in - NW 4.6 mph - N/A   Clear
1:00 AM 33.1 °F 26.9 °F 27.0 °F 78% 30.13 in - NW 6.9 mph - N/A   Clear
2:00 AM 33.1 °F - 26.1 °F 75% 30.15 in - Calm Calm - N/A   Clear
3:00 AM 25.0 °F - 23.0 °F 92% 30.14 in - Calm Calm - N/A   Clear
4:00 AM 30.9 °F - 25.0 °F 79% 30.15 in - Calm Calm - N/A   Clear
5:00 AM 28.9 °F 25.2 °F 25.0 °F 85% 30.17 in - WNW 3.5 mph - N/A   Clear
6:00 AM 27.0 °F - 24.1 °F 89% 30.17 in - Calm Calm - N/A   Clear
7:00 AM 24.1 °F 19.7 °F 23.0 °F 96% 30.19 in - West 3.5 mph - N/A   Clear
8:00 AM 28.9 °F - 27.0 °F 92% 30.19 in - Calm Calm - N/A   Clear
9:00 AM 33.1 °F - 28.9 °F 85% 30.22 in - Calm Calm - N/A   Clear
10:00 AM 36.0 °F - 28.0 °F 73% 30.20 in - Calm Calm - N/A   Clear
1:00 PM 43.0 °F 36.8 °F 28.9 °F 58% 30.10 in - East 11.5 mph - N/A   Clear
2:00 PM 43.0 °F 37.2 °F 32.0 °F 65% 30.10 in - East 10.4 mph - N/A   Partly Cloudy
2:18 PM 44.6 °F 40.2 °F 32.0 °F 61% 30.11 in - ESE 8.1 mph - N/A   Mostly Cloudy
3:00 PM 44.1 °F 39.5 °F 33.1 °F 65% 30.10 in - ESE 8.1 mph - N/A   Mostly Cloudy
3:29 PM 42.8 °F 38.0 °F 33.8 °F 70% 30.07 in - ESE 8.1 mph - N/A   Scattered Clouds
4:00 PM 43.0 °F 37.7 °F 34.0 °F 71% 30.06 in - ESE 9.2 mph - N/A   Partly Cloudy
4:38 PM 42.8 °F 39.3 °F 35.6 °F 76% 30.04 in - ESE 5.8 mph - N/A   Mostly Cloudy
5:00 PM 43.0 °F 40.3 °F 35.1 °F 74% 30.03 in - ESE 4.6 mph - N/A   Overcast
6:00 PM 43.0 °F 41.3 °F 36.0 °F 76% 30.02 in - East 3.5 mph - N/A   Overcast
6:41 PM 42.8 °F 41.1 °F 35.6 °F 76% 30.02 in - ENE 3.5 mph - N/A Rain Light Rain
7:00 PM 42.1 °F 34.9 °F 37.0 °F 82% 29.97 in - East 13.8 mph - N/A   Overcast
7:24 PM 44.6 °F 43.1 °F 39.2 °F 81% 30.01 in - SSW 3.5 mph - N/A   Overcast
7:52 PM 42.8 °F - 37.4 °F 81% 29.99 in - Calm Calm - N/A   Overcast
8:00 PM 43.0 °F 39.5 °F 37.9 °F 82% 29.98 in - ENE 5.8 mph - N/A   Overcast
9:00 PM 46.0 °F 41.9 °F 39.9 °F 79% 29.91 in - East 8.1 mph - N/A   Mostly Cloudy
10:00 PM 48.9 °F - 42.1 °F 77% 29.87 in - ESE 12.7 mph - N/A   Overcast
11:00 PM 50.0 °F - 42.1 °F 74% 29.82 in - ESE 16.1 mph - N/A   Overcast